Вернуться в каталог

QIANFAN-24

АктивенСвязьPO
NORAD 61557·PAYLOAD·🇨🇳 China

Запущен Oct 15, 2024 с Taiyuan Satellite Launch Center

Loading…

Ближайшие Пролёты (ближайшие 24 часа)

TLE

СвежийSource: Space-Track

Эпоха: Sep 14, 2026, 13:27 UTC

1 61557U 24185F   26257.56105251  .00000448  00000-0  18832-3 0  9992
2 61557  88.9826  44.9757 0011555 114.4142 245.8257 14.24153046109279

Отслеживайте QIANFAN-24 в реальном времени с AllMySat

Download on the App Store